User: anonymous   Login
Location: Dayton
(39.7590°N, 84.1920°W)
Time: 23:05:33
(UTC-04:00)
Language:

Cosmos 1939 Rocket - Orbit

View from above orbital plane
View from above orbital plane
View from above satellite
View from above satellite

Ground track
Ground track

The orbit data is extracted from the following two-line orbital elements,

1 19046U 88032B   15211.23104612  .00001659  00000-0  13140-3 0  9993
2 19046 097.6257 262.9839 0041417 153.9275 206.4047 15.01299478469385
Epoch (UTC): 30 July 2015 05:32:42
Eccentricity: 0.0041417
inclination: 97.6257°
perigee height: 534 km
apogee height: 591 km
right ascension of ascending node: 262.9839°
argument of perigee: 153.9275°
revolutions per day: 15.01299478
mean anomaly at epoch: 206.4047°
orbit number at epoch: 46938

The dashed part of the orbit path shows where the satellite is in the earth's shadow,  

DLR